DELTA 1 DEB, 7016

Orbit data source: Space-Track

DELTA 1 DEB, 7016 is space debris in LEO originally from a launch on Tue, 06 Nov 1973 UTC launched from the Air Force Western Test Range (AFWTR). Debris objects in space refer to the collection of defunct objects orbiting the Earth. Examples of debris include non-operational satellites, rocket bodies, and fragments generated from explosions, collisions, or faulty payload assembly.

Loading next visibility...
Identifier
7016, 1973-086G
Orbit
LEO
Country
Flag of USUS
Related business
Manufacturer
Unknown
Mission
Spacecraft
Bus & Motor
Unknown
Mass
Unknown
Launch date (UTC)
1973-11-06 (53 years ago)
Launch vehicle
Unknown
Launch site
Air Force Western Test Range (AFWTR)
Object type
Payload
Rocket body
Debris
Shape & HBR
Unknown shape, 0.4 m
Radar Cross Section
Medium (>0.1 m² and <1 m²)

Expand to show TLE details & history
Last TLE update: 5 days ago

TLE from 5 days ago
0 DELTA 1 DEB
1 07016U 73086G   26258.74015174  .00000185  00000-0  38211-2 0  9991
2 07016 101.7027 355.3777 0511228 238.5805 282.9312 11.45465719209787
Epoch: 2026-09-15T17:45Z
TLE epoch observation values (Epoch: 2026-09-15T17:45:49.110Z)
Latitude
23.75641°
Longitude
-80.57238°
Altitude
1,862.969 km
Speed
6.989 km/s
True Right ascension
12h 02m 20s
True Declination
23° 38' 49"
Sunlit
Object was in daylight at epoch
Visualization orbit readout
Latitude
Unknown
Longitude
Unknown
Altitude
Unknown
Speed
Unknown
Apparent Right ascension
Unknown
Apparent Declination
Unknown
Sunlit
N/A
Visualization observer readout
Local Sidereal Time
09:46:08
Azimuth
Unknown
Elevation
Unknown
Doppler factor
Unknown
Orbital elements
Apogee altitude
2,357.188 km
Perigee altitude
1,507.479 km
Semi-major axis
8,310.47 km
Eccentricity
0.05112
Inclination
101.7027°
RAAN
355.3777°
Arg. of periapsis
238.5805°
True anomaly
277.14859°
Mean anomaly
282.9312°
Eccentric anomaly
280.047°
Mean motion
2.86487 °/min
Orbital period
125.66 mins
BSTAR
0.0038211
Loading maneuver chart data...
Computing Atmospheric mass density...
Loading historical data...
Loading historical data...
Loading historical data...
Loading historical data...
Loading historical data...
Loading historical data...
Loading historical data...

Documentation

Showing up to 5 results
|